Pinedale, WY

10:37 PM MDT on March 23, 2017 (GMT -0600)
Wenz

Weather History for KPNA - December, 2012

Change the Weather History Date:

Tuesday, December 18, 2012

  Actual Average (KBPI) Record (KBPI)
Temperature  
Mean Temperature 4 °F -  
Max Temperature 17 °F 22 °F 41 °F (1980)
Min Temperature -9 °F 0 °F -17 °F (2008)
Degree Days  
Heating Degree Days 61    
Moisture  
Dew Point -1 °F    
Average Humidity 72    
Maximum Humidity 100    
Minimum Humidity 53    
Precipitation  
Precipitation 0.00 in - - ()
Sea Level Pressure  
Sea Level Pressure 29.72 in    
Wind  
Wind Speed 6 mph (WNW)    
Max Wind Speed 14 mph    
Max Gust Speed -    
Visibility 10 miles    
Events      
Averages and records for this station are not official NWS values.
T = Trace of Precipitation, MM = Missing Value Source: NWS Daily Summary

Daily Weather History Graph

Daily Weather History Graph

Search for Another Location

Airport or City:

Trip Planner

Search our weather history database for the weather conditions in past years. The results will help you decide how hot, cold, wet, or windy it might be!

Date:

Astronomy

Dec. 18, 2012 Rise Set
Actual Time 7:45 AM MST 4:47 PM MST
Civil Twilight 7:12 AM MST 5:19 PM MST
Nautical Twilight 6:37 AM MST 5:55 PM MST
Astronomical Twilight 6:02 AM MST 6:29 PM MST
Moon 11:19 AM MST (12/18) 11:25 PM MST (12/18)
Length of Visible Light 10h 06m
Length of Day
9h 01m
Waxing Crescent, 35% of the Moon is Illuminated
Dec 18
Waxing Crescent
Dec 19
First Quarter
Dec 28
Full
Jan 4
Last Quarter
Jan 11
New

Hourly Weather History & Observations

Time (MST) Temp. Windchill Dew Point Humidity Pressure Visibility Wind Dir Wind Speed Gust Speed Precip Events Conditions
12:15 AM 17.6 °F 7.3 °F 5.0 °F 58% 29.69 in 10.0 mi WSW 8.1 mph - N/A   Clear
12:35 AM 14.0 °F 2.9 °F 3.2 °F 62% 29.70 in 10.0 mi West 8.1 mph - N/A   Clear
12:55 AM 14.0 °F 2.9 °F 3.2 °F 62% 29.69 in 10.0 mi West 8.1 mph - N/A   Clear
1:15 AM 14.0 °F 1.2 °F 3.2 °F 62% 29.70 in 10.0 mi WSW 10.4 mph - N/A   Clear
1:35 AM 14.0 °F 1.2 °F 3.2 °F 62% 29.70 in 10.0 mi WSW 10.4 mph - N/A   Clear
1:55 AM 14.0 °F -0.8 °F 5.0 °F 67% 29.70 in 10.0 mi WSW 13.8 mph - N/A   Clear
2:15 AM 14.0 °F 1.2 °F 3.2 °F 62% 29.71 in 10.0 mi WSW 10.4 mph - N/A   Clear
2:35 AM 12.2 °F 1.7 °F 3.2 °F 67% 29.71 in 10.0 mi West 6.9 mph - N/A   Clear
2:55 AM 12.2 °F 1.7 °F 3.2 °F 67% 29.72 in 10.0 mi WNW 6.9 mph - N/A   Clear
3:15 AM 10.4 °F -1.5 °F 1.4 °F 67% 29.71 in 10.0 mi WNW 8.1 mph - N/A   Scattered Clouds
3:35 AM 5.0 °F - -0.4 °F 78% 29.71 in 10.0 mi Calm Calm - N/A   Clear
3:55 AM 1.4 °F -9.9 °F -4.0 °F 78% 29.71 in 10.0 mi North 5.8 mph - N/A   Clear
4:15 AM 3.2 °F -7.8 °F -4.0 °F 72% 29.72 in 10.0 mi NNW 5.8 mph - N/A   Clear
4:35 AM 3.2 °F -7.8 °F -4.0 °F 72% 29.71 in 10.0 mi WNW 5.8 mph - N/A   Clear
4:55 AM 3.2 °F -4.2 °F -0.4 °F 85% 29.71 in 10.0 mi WNW 3.5 mph - N/A   Clear
5:15 AM 5.0 °F - -0.4 °F 78% 29.72 in 10.0 mi Calm Calm - N/A   Clear
5:35 AM 1.4 °F - -4.0 °F 78% 29.72 in 10.0 mi Calm Calm - N/A   Clear
5:55 AM -2.2 °F -10.4 °F -7.6 °F 78% 29.73 in 10.0 mi West 3.5 mph - N/A   Clear
6:15 AM -0.4 °F -10.4 °F -5.8 °F 78% 29.73 in 10.0 mi West 4.6 mph - N/A   Scattered Clouds
6:35 AM -0.4 °F -8.3 °F -5.8 °F 78% 29.73 in 7.0 mi NW 3.5 mph - N/A   Scattered Clouds
6:55 AM -4.0 °F - -4.0 °F 100% 29.73 in 10.0 mi Calm Calm - N/A   Clear
7:15 AM -4.0 °F - -7.6 °F 85% 29.74 in 10.0 mi Calm Calm - N/A   Clear
7:35 AM -4.0 °F - -7.6 °F 85% 29.74 in 10.0 mi Calm Calm - N/A   Clear
7:55 AM -9.4 °F - -13.0 °F 84% 29.74 in 10.0 mi Calm Calm - N/A   Clear
8:15 AM -5.8 °F - -9.4 °F 84% 29.74 in 10.0 mi Calm Calm - N/A   Clear
8:35 AM -5.8 °F -14.5 °F -9.4 °F 84% 29.74 in 10.0 mi NW 3.5 mph - N/A   Clear
8:55 AM -4.0 °F -12.4 °F -7.6 °F 85% 29.74 in 10.0 mi NNW 3.5 mph - N/A   Clear
9:15 AM -4.0 °F -12.4 °F -5.8 °F 92% 29.75 in 10.0 mi West 3.5 mph - N/A   Clear
9:35 AM -0.4 °F -12.0 °F -5.8 °F 78% 29.75 in 10.0 mi WNW 5.8 mph - N/A   Clear
9:55 AM -0.4 °F -10.4 °F -5.8 °F 78% 29.75 in 10.0 mi WNW 4.6 mph - N/A   Clear
10:15 AM 1.4 °F -8.3 °F -4.0 °F 78% 29.75 in 10.0 mi NW 4.6 mph - N/A   Clear
10:35 AM 3.2 °F - -2.2 °F 78% 29.76 in 10.0 mi Calm Calm - N/A   Clear
10:55 AM 5.0 °F - -0.4 °F 78% 29.75 in 10.0 mi Calm Calm - N/A   Clear
11:15 AM 10.4 °F 4.0 °F 3.2 °F 73% 29.74 in 10.0 mi WSW 3.5 mph - N/A   Clear
11:35 AM 12.2 °F 6.1 °F 3.2 °F 67% 29.74 in 10.0 mi West 3.5 mph - N/A   Scattered Clouds
11:55 AM 14.0 °F - 3.2 °F 62% 29.74 in 10.0 mi Calm Calm - N/A   Scattered Clouds
12:15 PM 15.8 °F 10.2 °F 3.2 °F 58% 29.74 in 10.0 mi East 3.5 mph - N/A   Scattered Clouds
12:35 PM 15.8 °F - 3.2 °F 58% 29.73 in 10.0 mi Calm Calm - N/A   Mostly Cloudy
12:55 PM 15.8 °F - 3.2 °F 58% 29.72 in 10.0 mi Calm Calm - N/A   Mostly Cloudy
1:15 PM 17.6 °F 12.3 °F 3.2 °F 53% 29.72 in 10.0 mi NW 3.5 mph - N/A   Scattered Clouds
1:35 PM 15.8 °F 10.2 °F 3.2 °F 58% 29.71 in 10.0 mi NW 3.5 mph - N/A   Scattered Clouds
1:55 PM 15.8 °F 8.6 °F 3.2 °F 58% 29.70 in 10.0 mi NNW 4.6 mph - N/A   Mostly Cloudy
2:15 PM 15.8 °F 10.2 °F 3.2 °F 58% 29.69 in 10.0 mi WNW 3.5 mph - N/A   Scattered Clouds
2:35 PM 15.8 °F 8.6 °F 3.2 °F 58% 29.69 in 10.0 mi WNW 4.6 mph - N/A   Mostly Cloudy
2:55 PM 14.0 °F 8.2 °F 3.2 °F 62% 29.69 in 10.0 mi WNW 3.5 mph - N/A   Mostly Cloudy
3:15 PM 15.8 °F 10.2 °F 3.2 °F 58% 29.68 in 10.0 mi NW 3.5 mph - N/A   Overcast
3:35 PM 14.0 °F 8.2 °F 3.2 °F 62% 29.68 in 10.0 mi NW 3.5 mph - N/A   Overcast
3:55 PM 14.0 °F 8.2 °F 3.2 °F 62% 29.67 in 10.0 mi West 3.5 mph - N/A   Overcast
4:15 PM 14.0 °F 8.2 °F 3.2 °F 62% 29.68 in 10.0 mi West 3.5 mph - N/A   Overcast
4:35 PM 12.2 °F 2.9 °F 3.2 °F 67% 29.68 in 10.0 mi WNW 5.8 mph - N/A   Overcast
4:55 PM 10.4 °F 0.8 °F 3.2 °F 73% 29.68 in 10.0 mi West 5.8 mph - N/A   Overcast
5:15 PM 8.6 °F -1.3 °F 1.4 °F 73% 29.68 in 10.0 mi WNW 5.8 mph - N/A   Overcast
5:35 PM 8.6 °F 0.1 °F 3.2 °F 79% 29.69 in 5.0 mi NW 4.6 mph - N/A   Haze
5:55 PM 8.6 °F -2.6 °F 1.4 °F 73% 29.69 in 10.0 mi WNW 6.9 mph - N/A   Overcast
6:15 PM 8.6 °F -3.7 °F 1.4 °F 73% 29.69 in 10.0 mi WNW 8.1 mph - N/A   Overcast
6:35 PM 6.8 °F -6.9 °F 1.4 °F 79% 29.69 in 10.0 mi West 9.2 mph - N/A   Mostly Cloudy
6:55 PM 5.0 °F -6.9 °F 1.4 °F 85% 29.70 in 10.0 mi West 6.9 mph - N/A   Scattered Clouds
7:15 PM 5.0 °F -8.1 °F -0.4 °F 78% 29.70 in 10.0 mi NW 8.1 mph - N/A   Overcast
7:35 PM 5.0 °F -6.9 °F -0.4 °F 78% 29.71 in 10.0 mi NW 6.9 mph - N/A   Overcast
7:55 PM 5.0 °F -4.1 °F -2.2 °F 72% 29.71 in 10.0 mi NNW 4.6 mph - N/A   Mostly Cloudy
8:15 PM 5.0 °F -4.1 °F -0.4 °F 78% 29.72 in 10.0 mi NNW 4.6 mph - N/A   Mostly Cloudy
8:35 PM 5.0 °F -4.1 °F -2.2 °F 72% 29.72 in 10.0 mi North 4.6 mph - N/A   Overcast
8:55 PM 5.0 °F -6.9 °F -0.4 °F 78% 29.72 in 10.0 mi NNW 6.9 mph - N/A   Scattered Clouds
9:15 PM 5.0 °F -8.1 °F -2.2 °F 72% 29.72 in 10.0 mi NW 8.1 mph - N/A   Mostly Cloudy
9:35 PM 3.2 °F -4.2 °F -4.0 °F 72% 29.72 in 10.0 mi North 3.5 mph - N/A   Mostly Cloudy
9:55 PM 1.4 °F - -4.0 °F 78% 29.72 in 10.0 mi Calm Calm - N/A   Scattered Clouds
10:15 PM 1.4 °F - -4.0 °F 78% 29.72 in 10.0 mi Calm Calm - N/A   Clear
10:35 PM 1.4 °F -6.2 °F -4.0 °F 78% 29.71 in 10.0 mi NW 3.5 mph - N/A   Scattered Clouds
10:55 PM 1.4 °F -11.3 °F -5.8 °F 72% 29.73 in 10.0 mi WNW 6.9 mph - N/A   Scattered Clouds
11:15 PM 3.2 °F -9.1 °F -5.8 °F 66% 29.73 in 10.0 mi WNW 6.9 mph - N/A   Scattered Clouds
11:35 PM 1.4 °F -9.9 °F -5.8 °F 72% 29.73 in 10.0 mi NW 5.8 mph - N/A   Clear
11:55 PM 1.4 °F -9.9 °F -5.8 °F 72% 29.73 in 10.0 mi NW 5.8 mph - N/A   Clear